Reflectivity
9 -20 -18 -18 13 -20 -20 17 15 12 -20 16 5 4 -20 -20 -20 -20 -20 -20 -20 -20 -20 -20 -20 -20 -20 -20 -20 -20 -20 -20 -20 -20 -20 -20 -20 -20 -18 -20 -20 -20 -20 -20
6 -2 -14 -13 15 -20 -12 20 13 23 13 10 5 -1 -18 -16 -20 -20 -20 -20 -20 -20 -20 -20 -20 -20 -20 -19 -2 -12 17 -15 -20 -20 -20 -20 -20 -20 6 -20 -20 -20 -20 -20
-3 6 -2 -5 -13 -20 23 19 16 13 24 3 3 -6 -5 10 -1 -20 -20 -20 -20 -20 -20 -20 -20 -20 -20 -20 -17 8 6 24 -17 -20 -20 -20 -20 -18 -2 -18 -20 -20 -20 -20
10 1 -16 0 -1 -14 28 22 17 7 7 21 10 -1 -20 -7 9 -11 3 -20 -20 -20 -20 -20 -20 -20 -20 -20 -11 5 14 33 -20 -20 -20 -20 -20 -9 -6 -19 -20 -20 -20 -20
-13 -20 -20 -20 14 19 23 31 22 17 -5 -16 7 17 -2 2 3 -5 1 -20 -17 -20 0 -20 -20 -20 -20 -7 6 18 24 32 -20 -20 -20 -20 -12 -19 -3 -8 -20 -20 -20 -20
-8 -13 1 14 21 29 38 34 30 13 18 -2 9 -1 -9 3 10 -9 -20 -3 -3 -20 -20 -20 -20 -20 -20 -19 -19 30 33 35 30 -20 -20 -17 17 -7 -20 -20 -20 -20 -20 -20
13 15 25 27 27 28 31 30 25 29 10 11 -13 -20 -20 -15 -20 -12 -12 -20 -12 -14 -20 8 -18 -20 -20 -20 -20 14 27 37 36 19 -13 -7 -20 -20 -20 -20 -20 -20 -20 -20
18 21 27 29 28 26 30 28 24 20 9 -8 -13 -20 -20 -20 -20 -20 -9 -20 -15 -20 -19 7 -14 -20 -16 -20 -15 -9 15 17 16 19 -1 -17 -20 -20 -20 -20 -20 -20 -20 -20
14 15 26 29 28 28 29 29 28 24 18 -6 -7 3 -20 -17 -20 -20 -20 9 -5 -20 -6 -1 15 -4 -16 9 13 -16 14 -15 21 11 21 -20 -20 -20 -18 9 25 -16 -8 -18
15 16 18 19 26 28 31 31 30 30 32 10 -9 6 -20 -20 -20 -20 -2 5 -19 -20 -18 -13 -7 -3 -17 6 7 9 -1 24 15 15 26 6 -20 -20 -20 5 -20 -9 12 12
3 -20 -19 -19 18 20 32 33 24 26 26 26 -10 -20 3 -14 3 -9 -5 8 -10 -20 -20 -20 -20 -13 -20 -20 -9 14 9 18 3 20 10 -15 -20 -17 -20 -20 20 9 -13 -10
-20 -20 -19 -20 20 16 31 33 26 30 33 24 -15 -20 -20 -20 -20 3 7 -11 1 -20 -20 -20 -20 -20 -19 -20 -20 7 -20 -20 24 10 15 -20 -20 -20 -20 14 -16 1 10 -18
3 7 4 12 5 -20 1 28 14 28 35 28 23 -18 -20 -20 -20 -20 -4 -20 -3 10 -20 -1 -12 -20 -20 -20 -20 -20 -20 -19 2 5 4 -20 -20 -20 -5 18 8 -3 13 20
15 22 21 12 13 -3 6 20 22 4 8 2 -20 -20 -20 -20 -20 -20 -19 -20 13 7 6 -5 -14 -5 -20 -20 -20 12 13 -6 -7 -19 -20 -20 -20 -19 -19 -11 9 2 -18 10
13 5 23 25 26 26 24 23 30 10 -15 -20 -20 -20 -20 -20 -20 -20 5 6 16 14 6 25 12 -20 -1 -20 -20 -20 -13 -20 -19 -19 6 -12 -20 -17 21 24 13 18 24 27
26 22 16 18 26 27 36 40 30 15 2 -20 -16 -20 -20 -20 -20 -20 -19 -17 10 8 13 3 -7 -20 23 -20 -20 -20 -20 -20 -20 -20 -3 -20 -20 -20 2 30 23 -15 8 -12
19 19 15 21 33 35 32 14 2 24 -19 16 1 15 -20 -18 8 -16 14 -1 18 12 26 18 -20 -20 12 -15 -20 -20 6 -20 -20 -20 -20 -20 -20 -20 -13 -6 24 21 -11 -18
4 22 35 33 36 29 12 25 -15 1 2 20 -2 25 11 -14 29 30 10 1 21 38 33 34 -17 -20 -20 -20 -20 -20 -3 -20 -20 -20 -20 -20 -20 -10 -20 -8 8 12 21 31
38 34 30 35 34 35 9 4 9 1 -6 -17 15 33 4 -2 30 18 16 3 29 22 -15 -20 -20 -20 -20 -20 -20 -20 -19 -20 -20 -20 -20 -20 -20 -14 19 7 6 11 1 -3
15 26 33 35 27 11 20 28 33 17 17 6 -14 34 4 -17 23 29 33 4 -8 -20 -20 -20 -20 -20 -20 -20 -20 -20 -20 -20 -20 -20 -20 -20 -20 -20 -4 8 -7 -20 -20 -15
27 24 21 17 8 4 16 19 -3 -1 -19 20 14 27 8 21 15 4 -20 -20 -20 -20 -20 -20 -17 -20 -20 -20 -20 -20 -20 -20 -20 -20 -20 -20 -20 -20 -20 -20 -20 -20 -20 -20
8 17 23 24 26 31 25 -2 25 -12 -14 -5 14 0 14 -10 -10 -20 -20 -20 -19 -20 -20 -13 -17 -20 -20 -20 -20 -20 -20 -20 -20 -20 -20 -20 -20 -20 -20 -20 -20 -20 -20 -20
-18 -19 7 34 23 14 10 -19 -18 -20 -20 -20 -20 -19 -20 -20 -20 -20 -20 -20 -20 -11 3 -20 -20 -20 -20 -20 -20 -20 -20 -20 -16 -20 -20 -20 -20 -20 -20 -20 -20 -20 -20 -20
-20 -20 -20 -20 -20 -20 -17 -1 -14 -12 -20 -20 -20 -20 -19 -1 -20 -19 -20 -20 -20 -15 3 -20 -20 -20 -20 -19 -19 -20 -12 -2 8 7 -2 -10 -20 -18 5 25 28 -19 5 19
-20 -20 -20 -20 -5 -14 0 -17 -19 -20 -20 -20 -20 -20 -20 -20 -20 -20 -20 -17 -18 -18 -20 -20 -20 -18 -12 -5 14 11 -11 11 1 20 32 24 29 33 21 -6 -12 -15 -13 -17
-20 -20 -20 -20 -7 -19 -19 -20 -20 -3 -9 -11 -20 -20 -20 -20 -20 -20 -20 -20 -20 3 -10 -12 -14 -8 3 15 12 2 5 13 19 27 28 20 21 13 5 5 -0 4 -4 6
-20 -20 -19 -19 -20 -19 -19 -19 -20 -18 -14 7 3 5 6 7 6 -0 -10 -18 -5 -20 -20 2 -9 -2 7 10 8 9 10 -3 5 10 10 1 -6 -6 -14 6 14 10 9 -5
Wind_Speed
21 19 19 18 18 17 12 3 5 4 11 8 5 12 9 5 5 3 4 3 9 4 4 5 5 6 6 8 5 8 6 6 9 23 13 2 5 14 14 7 4 3 5 8
21 21 20 20 19 19 3 6 5 5 6 11 10 10 17 17 9 9 2 3 4 1 2 5 6 7 8 7 3 5 12 6 5 4 8 17 12 5 5 3 3 9 8 7
24 23 23 23 22 22 10 2 7 6 10 8 13 16 17 18 13 24 18 10 11 12 13 10 8 8 7 9 8 7 9 8 13 12 7 7 6 9 7 7 6 4 8 6
25 25 25 25 25 24 12 7 7 6 8 14 14 17 10 21 17 13 12 7 19 12 6 8 15 13 15 12 5 3 4 10 12 12 17 12 3 5 4 4 6 11 8 11
27 27 27 27 26 26 13 7 5 6 3 8 19 14 14 18 16 15 14 19 13 11 15 9 6 5 6 6 2 4 7 7 16 11 8 18 19 15 10 9 6 8 7 11
29 29 29 29 28 25 8 7 4 3 7 14 15 19 18 16 17 15 18 16 13 16 24 19 17 15 13 10 9 1 3 2 6 7 4 4 6 16 15 15 5 4 8 9
30 30 29 29 29 29 11 3 5 5 8 12 16 17 20 20 19 20 9 17 17 25 10 8 11 16 18 17 16 11 7 4 2 5 2 5 5 8 13 14 19 11 9 6
31 30 30 31 32 32 13 6 6 7 11 13 16 19 15 17 15 21 21 19 15 4 6 5 7 4 4 11 15 14 15 6 3 2 4 4 2 6 10 10 12 11 13 9
30 29 29 30 31 33 16 12 6 4 6 16 14 15 17 12 10 15 20 18 9 1 3 4 5 4 5 3 4 6 10 12 7 3 7 9 3 7 5 9 11 10 10 11
28 28 28 28 30 32 18 6 13 6 5 6 15 13 13 12 9 3 2 4 8 12 4 4 3 5 4 5 2 2 3 2 9 5 3 8 9 6 2 5 9 4 4 6
25 26 25 25 26 28 20 10 16 12 5 4 11 16 9 9 12 5 4 2 0 4 5 5 5 4 5 6 4 4 5 5 2 3 2 7 5 3 2 5 7 5 4 8
27 27 27 27 26 27 25 4 9 7 3 0 2 3 7 14 18 10 4 4 3 5 4 2 2 3 1 4 6 5 3 7 8 10 8 7 6 4 3 4 1 2 5 7
30 29 29 29 29 27 25 6 9 5 3 1 3 5 7 9 8 7 8 4 6 3 4 3 3 4 5 4 6 11 5 5 3 2 9 16 10 7 4 8 5 6 4 6
33 32 31 31 30 30 27 9 9 9 3 2 5 10 15 8 6 8 6 7 3 1 2 3 3 3 3 4 6 5 7 6 7 6 7 7 12 8 8 9 7 4 9 5
32 33 34 32 31 29 18 8 7 9 8 5 4 4 9 12 13 15 5 6 5 3 3 2 4 2 1 2 2 5 5 7 4 7 9 4 8 6 6 10 8 9 7 7
26 28 32 34 33 30 9 3 7 11 4 3 3 4 7 8 15 15 12 5 5 3 3 4 5 5 4 2 4 5 11 6 3 4 5 4 9 5 4 5 8 3 4 3
27 27 25 34 33 14 7 5 7 14 4 3 2 5 2 11 14 7 3 3 3 3 2 5 3 2 4 3 5 6 11 11 10 10 7 7 4 3 7 14 11 14 18 16
25 27 29 31 31 17 2 1 23 17 6 2 3 5 4 1 3 4 3 3 1 4 4 2 4 1 2 6 5 12 16 12 11 11 8 7 4 6 8 11 13 16 16 14
29 33 32 17 6 4 1 20 22 3 4 4 4 4 3 3 2 3 3 3 3 1 2 3 4 3 7 6 7 3 1 1 6 7 4 8 10 8 8 10 18 14 15 14
30 11 4 5 6 33 22 3 3 2 0 1 3 1 2 2 2 4 4 1 3 3 5 3 3 5 5 6 7 5 1 3 6 5 4 5 7 8 10 12 13 13 17 16
3 3 5 14 14 7 3 3 3 4 3 3 2 4 3 0 4 2 1 3 3 4 5 6 4 4 4 2 5 4 4 7 6 5 4 10 13 13 14 13 14 14 16 17
7 9 7 4 4 4 4 3 2 3 6 4 4 3 3 1 2 5 1 4 2 5 3 3 4 2 6 7 6 6 5 11 14 14 13 14 17 14 16 15 16 17 17 15
3 5 5 2 1 4 4 4 2 1 1 3 5 4 3 2 3 4 3 4 5 2 4 5 2 4 6 7 6 9 9 11 20 18 15 17 18 15 17 19 15 17 17 15
4 4 6 4 4 4 3 3 2 2 2 3 6 4 3 2 3 3 4 4 1 4 5 4 2 6 7 7 5 6 10 13 18 16 15 16 17 17 16 18 15 17 17 16
6 6 6 6 3 2 3 2 2 4 3 1 3 3 2 2 3 2 3 4 5 2 1 2 3 6 8 8 8 6 9 14 14 12 16 14 16 17 18 17 16 17 17 18
6 9 4 4 3 6 5 7 4 5 4 2 2 3 3 1 2 2 1 1 3 1 2 2 3 7 8 9 8 9 10 14 15 14 15 16 17 18 18 18 17 16 17 17
6 4 4 3 2 3 4 4 5 5 3 2 3 4 2 2 3 2 2 1 1 1 2 3 6 8 10 10 12 11 12 15 15 17 16 17 17 18 18 20 16 17 17 16
Wind_Direction
249 247 241 237 235 234 236 214 229 169 141 196 199 222 205 270 285 277 289 244 237 258 305 293 285 253 212 358 20 343 353 274 228 242 259 185 216 207 202 198 217 209 175 242
248 243 238 236 232 224 156 226 206 178 171 214 210 221 228 240 227 237 255 285 214 17 304 287 265 263 256 249 54 31 7 331 292 266 271 256 246 207 199 133 108 194 182 249
246 241 237 234 229 224 204 197 211 192 208 225 216 209 225 219 220 239 249 255 289 299 285 272 273 297 313 337 320 68 39 251 232 248 245 188 189 197 201 174 189 177 223 224
246 241 238 233 226 221 209 199 211 206 197 211 203 211 210 216 223 219 205 240 231 231 249 247 252 263 268 263 179 55 116 269 277 279 238 242 177 196 235 225 223 204 202 221
244 242 237 232 226 220 220 200 185 185 210 167 208 205 211 223 217 226 217 237 228 225 235 220 274 261 286 274 111 117 165 269 309 280 248 223 237 249 248 242 271 257 253 236
244 239 237 233 222 214 218 210 182 194 196 201 199 213 218 226 221 240 229 237 233 245 240 243 252 255 260 254 274 240 191 253 302 250 273 218 259 220 232 257 193 239 212 218
241 237 232 228 224 215 220 186 149 188 218 205 208 210 213 216 217 224 223 223 233 247 283 289 261 251 249 251 242 213 201 262 300 292 132 227 256 177 210 234 242 245 253 267
243 237 231 227 222 220 218 195 196 188 232 221 216 213 209 215 217 231 236 231 232 5 313 308 285 306 252 237 229 221 212 183 251 252 234 292 256 202 198 204 246 242 227 244
241 237 231 223 218 216 219 213 195 197 215 217 203 201 204 205 206 242 247 249 240 166 278 251 240 233 255 254 237 206 181 213 184 144 265 218 260 232 54 23 254 256 195 220
237 232 228 223 215 212 206 208 195 201 219 181 189 199 195 187 191 220 165 215 198 181 187 229 235 249 279 263 279 140 123 186 206 174 248 290 250 258 292 133 236 304 105 278
228 222 217 213 209 206 201 203 189 203 221 189 198 194 171 178 202 177 203 97 274 127 164 168 195 210 234 208 238 217 167 182 198 99 60 285 237 354 150 250 235 302 267 242
226 219 213 207 206 196 191 198 179 177 206 345 149 233 248 200 192 198 211 199 155 186 155 199 149 225 20 200 240 184 212 199 166 181 230 258 282 274 134 281 205 246 318 288
221 217 211 205 200 196 189 179 157 171 165 260 268 223 242 235 239 190 188 225 225 208 171 207 207 196 155 193 238 256 231 172 221 127 243 245 263 261 203 223 213 316 306 297
218 212 207 202 196 193 188 189 166 163 111 240 248 219 232 202 217 221 199 187 74 131 131 209 215 156 176 221 230 205 246 174 189 249 288 291 279 241 247 249 197 217 285 267
211 207 197 195 189 189 185 187 176 186 160 183 230 213 217 198 202 215 193 180 161 181 187 251 241 217 175 214 318 257 223 226 178 239 261 203 266 283 154 246 215 232 206 262
188 188 190 185 178 175 149 121 193 196 134 60 321 284 182 179 184 182 179 171 192 164 127 214 226 213 144 218 240 236 244 239 230 286 319 245 267 292 232 85 1 5 154 212
177 175 179 169 165 154 161 183 153 170 93 104 283 264 248 170 176 178 132 103 191 155 226 221 173 231 169 179 220 242 271 273 296 297 337 312 256 236 68 99 80 61 56 52
171 170 151 151 146 116 229 265 149 139 101 133 211 249 107 118 121 150 138 135 73 204 177 204 169 2 190 243 220 233 247 263 275 276 249 256 116 71 55 89 66 68 74 71
115 125 132 116 107 119 143 126 132 71 123 184 190 288 129 135 143 121 78 121 194 320 166 231 119 206 222 221 218 242 41 331 297 297 130 95 79 73 83 79 99 101 89 84
99 89 100 106 123 110 108 81 106 141 155 115 240 21 166 126 101 174 151 102 135 160 229 117 197 248 231 199 171 179 255 30 322 139 123 108 94 90 74 80 87 95 96 101
68 69 72 103 83 56 56 130 154 143 189 177 206 204 130 40 120 118 56 140 150 166 241 172 229 249 220 113 116 100 77 68 56 21 43 89 115 122 112 97 94 97 101 102
91 102 83 84 83 146 127 117 158 183 193 150 143 169 132 162 114 94 69 133 160 229 163 202 246 207 90 101 101 84 88 95 73 63 75 88 98 108 107 105 104 101 100 102
61 58 60 106 52 81 128 160 127 163 238 179 148 125 114 96 74 96 143 153 202 124 204 225 213 68 81 83 89 88 85 94 95 86 84 89 95 98 105 105 100 99 95 93
65 72 50 87 1 42 26 26 57 30 328 104 112 98 119 124 110 140 145 209 208 221 231 233 98 98 74 70 70 114 114 98 87 100 93 93 97 99 95 94 99 99 96 95
56 36 42 46 13 4 351 313 67 0 294 74 84 69 93 113 114 173 124 194 225 220 309 23 72 99 103 95 89 99 87 94 99 96 98 98 99 91 91 90 95 96 97 94
57 40 24 358 25 357 7 7 14 4 334 306 72 122 126 168 137 116 127 315 246 346 357 17 71 88 87 93 98 91 96 93 97 95 97 97 95 93 92 90 89 89 92 93
52 40 1 17 61 10 349 338 340 318 316 59 62 63 44 355 61 79 12 330 351 46 53 60 81 92 97 93 86 91 94 92 94 95 95 95 97 97 93 90 89 89 87 86